| time (UTC) | temp C | wind direction | speed KPH | gust KPH | rain 1hr cm | rain 24hr cm | rain mn cm | humidity % | barometer mb |
| 20260507082004 | 14 | 0 | 0.0 | 0.0 | 0.00 | 0.00 | 0.00 | 74 | 1013.9 |
| 20260507081005 | 14 | 0 | 0.0 | 0.0 | 0.00 | 0.00 | 0.00 | 74 | 1013.9 |
| 20260507080005 | 14 | 1 | 0.0 | 1.6 | 0.00 | 0.00 | 0.00 | 73 | 1013.8 |
| 20260507074005 | 15 | 0 | 0.0 | 4.8 | 0.00 | 0.00 | 0.00 | 71 | 1013.7 |
| 20260507073005 | 15 | 295 | 0.0 | 4.8 | 0.00 | 0.00 | 0.00 | 71 | 1013.6 |
| 20260507072006 | 15 | 310 | 3.2 | 4.8 | 0.00 | 0.00 | 0.00 | 71 | 1013.6 |
| 20260507071006 | 15 | 297 | 0.0 | 4.8 | 0.00 | 0.00 | 0.00 | 70 | 1013.6 |
| 20260507070009 | 16 | 1 | 0.0 | 3.2 | 0.00 | 0.00 | 0.00 | 69 | 1013.4 |
| 20260507065005 | 16 | 1 | 0.0 | 3.2 | 0.00 | 0.00 | 0.00 | 69 | 1013.4 |
| 20260507063005 | 16 | 1 | 0.0 | 3.2 | 0.00 | 0.00 | 0.00 | 68 | 1013.1 |
| 20260507062005 | 16 | 1 | 1.6 | 3.2 | 0.00 | 0.00 | 0.00 | 67 | 1013.0 |
| 20260507061005 | 16 | 344 | 1.6 | 4.8 | 0.00 | 0.00 | 0.00 | 67 | 1013.0 |
| 20260507055006 | 16 | 48 | 0.0 | 0.0 | 0.00 | 0.00 | 0.00 | 63 | 1013.1 |
| 20260507053005 | 17 | 48 | 0.0 | 0.0 | 0.00 | 0.00 | 0.00 | 62 | 1013.0 |
| 20260507052005 | 17 | 10 | 0.0 | 1.6 | 0.00 | 0.00 | 0.00 | 62 | 1013.0 |
| 20260507051005 | 17 | 1 | 0.0 | 1.6 | 0.00 | 0.00 | 0.00 | 61 | 1012.9 |
| 20260507045005 | 17 | 1 | 1.6 | 3.2 | 0.00 | 0.00 | 0.00 | 59 | 1012.8 |
| 20260507044005 | 17 | 1 | 0.0 | 9.7 | 0.00 | 0.00 | 0.00 | 59 | 1012.7 |
| 20260507042005 | 18 | 36 | 0.0 | 0.0 | 0.00 | 0.00 | 0.00 | 59 | 1012.7 |
| 20260507041004 | 18 | 15 | 0.0 | 0.0 | 0.00 | 0.00 | 0.00 | 57 | 1012.6 |
| 20260507040005 | 18 | 31 | 0.0 | 0.0 | 0.00 | 0.00 | 0.00 | 56 | 1012.6 |
| 20260507034005 | 19 | 31 | 0.0 | 0.0 | 0.00 | 0.00 | 0.00 | 56 | 1012.3 |
| 20260507033005 | 19 | 34 | 0.0 | 0.0 | 0.00 | 0.00 | 0.00 | 56 | 1012.2 |
| 20260507032005 | 20 | 356 | 0.0 | 0.0 | 0.00 | 0.00 | 0.00 | 53 | 1012.1 |
| 20260507031005 | 20 | 322 | 0.0 | 0.0 | 0.00 | 0.00 | 0.00 | 50 | 1012.1 |
| 20260507030005 | 21 | 322 | 0.0 | 0.0 | 0.00 | 0.00 | 0.00 | 49 | 1012.1 |
| 20260507025005 | 21 | 2 | 0.0 | 0.0 | 0.00 | 0.00 | 0.00 | 48 | 1012.1 |
| 20260507024005 | 21 | 61 | 0.0 | 0.0 | 0.00 | 0.00 | 0.00 | 46 | 1012.1 |
| 20260507023005 | 22 | 42 | 0.0 | 4.8 | 0.00 | 0.00 | 0.00 | 46 | 1012.0 |
| 20260507022005 | 22 | 103 | 3.2 | 4.8 | 0.00 | 0.00 | 0.00 | 45 | 1012.0 |
| 20260507021005 | 22 | 129 | 0.0 | 4.8 | 0.00 | 0.00 | 0.00 | 46 | 1011.9 |
| 20260507020004 | 23 | 149 | 3.2 | 4.8 | 0.00 | 0.00 | 0.00 | 46 | 1011.9 |
| 20260507014005 | 23 | 242 | 4.8 | 11.3 | 0.00 | 0.00 | 0.00 | 43 | 1011.7 |
| 20260507013005 | 24 | 6 | 0.0 | 3.2 | 0.00 | 0.00 | 0.00 | 46 | 1011.6 |
| 20260507012005 | 24 | 323 | 1.6 | 4.8 | 0.00 | 0.00 | 0.00 | 43 | 1011.6 |
| 20260507011004 | 25 | 289 | 4.8 | 11.3 | 0.00 | 0.00 | 0.00 | 40 | 1011.6 |
| 20260507005005 | 25 | 100 | 4.8 | 11.3 | 0.00 | 0.00 | 0.00 | 44 | 1011.6 |
| 20260507004005 | 25 | 298 | 0.0 | 9.7 | 0.00 | 0.00 | 0.00 | 44 | 1011.6 |
| 20260507003005 | 25 | 320 | 6.4 | 16.1 | 0.00 | 0.00 | 0.00 | 46 | 1011.7 |
| 20260507002004 | 25 | 182 | 1.6 | 9.7 | 0.00 | 0.00 | 0.00 | 50 | 1011.6 |
| 20260507001005 | 25 | 237 | 3.2 | 9.7 | 0.00 | 0.00 | 0.00 | 41 | 1011.6 |
| 20260507000005 | 25 | 150 | 1.6 | 11.3 | 0.00 | 0.00 | 0.00 | 43 | 1011.5 |
| 20260506234005 | 26 | 154 | 8.0 | 11.3 | 0.00 | 0.00 | 0.00 | 40 | 1011.4 |
| 20260506233006 | 26 | 167 | 1.6 | 9.7 | 0.00 | 0.00 | 0.00 | 42 | 1011.4 |
| 20260506232004 | 26 | 194 | 4.8 | 12.9 | 0.00 | 0.00 | 0.00 | 39 | 1011.4 |
| 20260506230005 | 27 | 50 | 4.8 | 11.3 | 0.00 | 0.00 | 0.00 | 40 | 1011.6 |
| 20260506225005 | 27 | 8 | 6.4 | 11.3 | 0.00 | 0.00 | 0.00 | 36 | 1011.8 |
| 20260506224004 | 27 | 144 | 3.2 | 9.7 | 0.00 | 0.00 | 0.00 | 36 | 1012.0 |
| 20260506223006 | 27 | 133 | 3.2 | 9.7 | 0.00 | 0.00 | 0.00 | 37 | 1012.1 |
| 20260506222004 | 27 | 231 | 6.4 | 12.9 | 0.00 | 0.00 | 0.00 | 34 | 1012.1 |
| 20260506221005 | 27 | 279 | 8.0 | 16.1 | 0.00 | 0.00 | 0.00 | 35 | 1012.3 |
| 20260506220006 | 27 | 187 | 3.2 | 16.1 | 0.00 | 0.00 | 0.00 | 38 | 1012.3 |
| 20260506215006 | 27 | 357 | 8.0 | 12.9 | 0.00 | 0.00 | 0.00 | 38 | 1012.3 |
| 20260506214004 | 27 | 52 | 4.8 | 29.0 | 0.00 | 0.00 | 0.00 | 39 | 1012.4 |
| 20260506213005 | 27 | 144 | 8.0 | 16.1 | 0.00 | 0.00 | 0.00 | 40 | 1012.4 |
| 20260506212004 | 27 | 200 | 11.3 | 19.3 | 0.00 | 0.00 | 0.00 | 37 | 1012.4 |
| 20260506211005 | 27 | 291 | 9.7 | 16.1 | 0.00 | 0.00 | 0.00 | 36 | 1012.6 |
| 20260506210005 | 27 | 84 | 3.2 | 12.9 | 0.00 | 0.00 | 0.00 | 38 | 1012.7 |
| 20260506203004 | 26 | 223 | 8.0 | 11.3 | 0.00 | 0.00 | 0.00 | 36 | 1012.9 |
| 20260506201004 | 26 | 209 | 9.7 | 12.9 | 0.00 | 0.00 | 0.00 | 38 | 1012.9 |
| 20260506200004 | 25 | 264 | 8.0 | 11.3 | 0.00 | 0.00 | 0.00 | 38 | 1013.0 |
| 20260506195004 | 25 | 132 | 3.2 | 14.5 | 0.00 | 0.00 | 0.00 | 42 | 1013.1 |
| 20260506194005 | 25 | 161 | 6.4 | 11.3 | 0.00 | 0.00 | 0.00 | 43 | 1013.2 |
| 20260506193004 | 24 | 328 | 4.8 | 11.3 | 0.00 | 0.00 | 0.00 | 41 | 1013.4 |
| 20260506192004 | 23 | 206 | 11.3 | 12.9 | 0.00 | 0.00 | 0.00 | 41 | 1013.5 |
| 20260506191007 | 23 | 222 | 8.0 | 11.3 | 0.00 | 0.00 | 0.00 | 46 | 1013.7 |
| 20260506190006 | 23 | 225 | 8.0 | 12.9 | 0.00 | 0.00 | 0.00 | 40 | 1013.8 |
| 20260506185004 | 22 | 148 | 4.8 | 12.9 | 0.00 | 0.00 | 0.00 | 44 | 1013.9 |
| 20260506183005 | 21 | 265 | 9.7 | 12.9 | 0.00 | 0.00 | 0.00 | 41 | 1014.3 |
| 20260506182005 | 21 | 248 | 8.0 | 9.7 | 0.00 | 0.00 | 0.00 | 43 | 1014.4 |
| 20260506181005 | 20 | 254 | 9.7 | 12.9 | 0.00 | 0.00 | 0.00 | 43 | 1014.5 |
| 20260506180006 | 20 | 236 | 3.2 | 12.9 | 0.00 | 0.00 | 0.00 | 45 | 1014.5 |
| 20260506175004 | 20 | 246 | 8.0 | 12.9 | 0.00 | 0.00 | 0.00 | 46 | 1014.6 |
| 20260506174005 | 19 | 106 | 4.8 | 11.3 | 0.00 | 0.00 | 0.00 | 48 | 1014.7 |
| 20260506173004 | 18 | 73 | 3.2 | 11.3 | 0.00 | 0.00 | 0.00 | 49 | 1014.9 |
| 20260506172006 | 17 | 295 | 6.4 | 11.3 | 0.00 | 0.00 | 0.00 | 48 | 1015.0 |
| 20260506171004 | 17 | 281 | 6.4 | 11.3 | 0.00 | 0.00 | 0.00 | 48 | 1015.0 |
| 20260506170004 | 17 | 73 | 4.8 | 9.7 | 0.00 | 0.00 | 0.00 | 49 | 1015.1 |
| 20260506162005 | 15 | 274 | 6.4 | 11.3 | 0.00 | 0.00 | 0.00 | 50 | 1015.7 |
| 20260506161005 | 15 | 244 | 4.8 | 11.3 | 0.00 | 0.00 | 0.00 | 52 | 1015.9 |
| 20260506160004 | 15 | 175 | 3.2 | 9.7 | 0.00 | 0.00 | 0.00 | 54 | 1016.0 |
| 20260506155005 | 15 | 147 | 4.8 | 9.7 | 0.00 | 0.00 | 0.00 | 56 | 1016.1 |
| 20260506154004 | 14 | 91 | 4.8 | 4.8 | 0.00 | 0.00 | 0.00 | 60 | 1016.2 |
| 20260506153004 | 13 | 129 | 4.8 | 9.7 | 0.00 | 0.00 | 0.00 | 65 | 1016.4 |
| 20260506151005 | 12 | 123 | 1.6 | 9.7 | 0.00 | 0.00 | 0.00 | 72 | 1016.6 |
| 20260506150005 | 11 | 130 | 1.6 | 4.8 | 0.00 | 0.00 | 0.00 | 73 | 1016.8 |
| 20260506145005 | 11 | 124 | 4.8 | 9.7 | 0.00 | 0.00 | 0.00 | 75 | 1017.0 |
| 20260506144004 | 10 | 127 | 4.8 | 4.8 | 0.00 | 0.00 | 0.00 | 77 | 1017.1 |
| 20260506143005 | 9 | 113 | 0.0 | 0.0 | 0.00 | 0.00 | 0.00 | 80 | 1017.3 |
| 20260506141005 | 8 | 195 | 0.0 | 0.0 | 0.00 | 0.00 | 0.00 | 84 | 1017.6 |
| 20260506140004 | 7 | 207 | 0.0 | 0.0 | 0.00 | 0.00 | 0.00 | 87 | 1017.7 |
| 20260506135004 | 7 | 207 | 0.0 | 0.0 | 0.00 | 0.00 | 0.00 | 89 | 1017.8 |
| 20260506134004 | 7 | 207 | 0.0 | 0.0 | 0.00 | 0.00 | 0.00 | 88 | 1017.8 |
| 20260506133005 | 7 | 207 | 0.0 | 0.0 | 0.00 | 0.00 | 0.00 | 90 | 1017.7 |
| 20260506132005 | 6 | 207 | 0.0 | 0.0 | 0.00 | 0.00 | 0.00 | 87 | 1017.5 |
| 20260506131005 | 6 | 207 | 0.0 | 0.0 | 0.00 | 0.00 | 0.00 | 90 | 1017.5 |
| 20260506130005 | 6 | 207 | 0.0 | 0.0 | 0.00 | 0.00 | 0.00 | 87 | 1017.4 |
| 20260506125005 | 6 | 207 | 0.0 | 0.0 | 0.00 | 0.00 | 0.00 | 88 | 1017.3 |
| 20260506124004 | 6 | 207 | 0.0 | 0.0 | 0.00 | 0.00 | 0.00 | 86 | 1017.2 |
| 20260506123004 | 6 | 207 | 0.0 | 0.0 | 0.00 | 0.00 | 0.00 | 85 | 1017.1 |
| 20260506122005 | 6 | 207 | 0.0 | 0.0 | 0.00 | 0.00 | 0.00 | 85 | 1016.9 |
| 20260506121004 | 6 | 207 | 0.0 | 0.0 | 0.00 | 0.00 | 0.00 | 84 | 1016.8 |
| 20260506120005 | 7 | 207 | 0.0 | 0.0 | 0.00 | 0.00 | 0.00 | 84 | 1016.7 |
| 20260506115005 | 7 | 207 | 0.0 | 0.0 | 0.00 | 0.00 | 0.00 | 80 | 1016.8 |
| 20260506114005 | 7 | 207 | 0.0 | 0.0 | 0.00 | 0.00 | 0.00 | 79 | 1016.7 |
| 20260506113005 | 7 | 207 | 0.0 | 0.0 | 0.00 | 0.00 | 0.00 | 78 | 1016.6 |
| 20260506111004 | 7 | 207 | 0.0 | 0.0 | 0.00 | 0.00 | 0.00 | 74 | 1016.6 |
| 20260506110004 | 7 | 176 | 0.0 | 0.0 | 0.00 | 0.00 | 0.00 | 74 | 1016.4 |
| 20260506105004 | 7 | 1 | 0.0 | 3.2 | 0.00 | 0.00 | 0.00 | 73 | 1016.4 |
| 20260506104004 | 7 | 1 | 1.6 | 3.2 | 0.00 | 0.00 | 0.00 | 73 | 1016.4 |
| 20260506103004 | 7 | 1 | 0.0 | 0.0 | 0.00 | 0.00 | 0.00 | 73 | 1016.4 |
| 20260506101004 | 8 | 1 | 0.0 | 0.0 | 0.00 | 0.00 | 0.00 | 72 | 1016.3 |
| 20260506094004 | 8 | 2 | 3.2 | 3.2 | 0.00 | 0.00 | 0.00 | 70 | 1015.9 |
| 20260506093004 | 8 | 30 | 0.0 | 4.8 | 0.00 | 0.00 | 0.00 | 69 | 1016.0 |
| 20260506092005 | 8 | 30 | 1.6 | 9.7 | 0.00 | 0.00 | 0.00 | 70 | 1015.9 |
| 20260506091005 | 9 | 296 | 0.0 | 4.8 | 0.00 | 0.00 | 0.00 | 67 | 1015.8 |
| 20260506090005 | 9 | 330 | 3.2 | 3.2 | 0.00 | 0.00 | 0.00 | 67 | 1015.5 |
| 20260506085004 | 9 | 15 | 1.6 | 3.2 | 0.00 | 0.00 | 0.00 | 66 | 1015.5 |
| 20260506084004 | 10 | 1 | 3.2 | 3.2 | 0.00 | 0.00 | 0.00 | 65 | 1015.6 |
| 20260506083004 | 10 | 20 | 0.0 | 3.2 | 0.00 | 0.00 | 0.00 | 65 | 1015.5 |